Météo Nord-Pas-de-Calais   La météo au plus près de chez vous

Station météorologique

Observations météo à Chartres (28070)

28070001 155 m Dernier relevé à 06:42
15.6°C
Humidité 79 % Vent 6.8 km/h 1022.1 hPa

Journée consultée

Jeudi 3 Septembre 2026

Synthèse de la journée

Périodes de référence en UTC

Température maximale

26.5°C

à 19:00

06h 06h

Température minimale

15.3°C

à 05:54

18h 18h

Rafale maximale

16 km/h

à 02:24

00h 00h

Précipitations

0 mm

Cumul quotidien

06h 06h

Ensoleillement

0h 0 mins

Durée quotidienne

00h 00h

Graphiques de la journée

Heure locale Réduire

Données détaillées

Relevés météo

Pas de 6 minutes Afficher les relevés infra-horaires
Relevés météo détaillés à Chartres pour le Jeudi 3 Septembre 2026
Heure Température °C Point de rosée °C Humidité % Vent moyen (raf.), km/h Précipitations mm Température à 10 cm °C Température à 20 cm °C Température à 50 cm °C Température à 100 cm °C Visibilité m Hauteur neige cm Ensoleillement min Rayonnement global W/m² Pression hPa État du sol  
06:42 15.6 °C 12.2 °C 80 % 6 km/h (12 km/h) 0 mm0 mm 20.5 °C 20.7 °C 20.4 °C 19.9 °C 20000 m 0 cm 0 min 0 W/m² 1022.3 hPa
06:36 15.6 °C 12.2 °C 80 % 8 km/h (12 km/h) 0 mm0 mm 20.5 °C 20.7 °C 20.4 °C 19.9 °C 20000 m 0 cm 0 min 0 W/m² 1022.2 hPa 0  
06:30 15.6 °C 12.2 °C 80 % 7 km/h (11 km/h) 0 mm0 mm 20.5 °C 20.7 °C 20.4 °C 19.9 °C 20000 m 0 cm 0 min 0 W/m² 1022.2 hPa 0  
06:24 15.6 °C 12 °C 79 % 6 km/h (9 km/h) 0 mm0 mm 20.5 °C 20.7 °C 20.4 °C 19.9 °C 20000 m 0 cm 0 min 0 W/m² 1022.2 hPa 0  
06:18 15.7 °C 12.1 °C 79 % 6 km/h (11 km/h) 0 mm0 mm 20.6 °C 20.7 °C 20.4 °C 19.9 °C 20000 m 0 cm 0 min 0 W/m² 1022.2 hPa 0  
06:12 15.7 °C 12.1 °C 79 % 6 km/h (11 km/h) 0 mm0 mm 20.5 °C 20.7 °C 20.4 °C 19.9 °C 20000 m 0 cm 0 min 0 W/m² 1022.1 hPa 0  
06:06 15.6 °C 12 °C 79 % 5 km/h (8 km/h) 0 mm0 mm 20.5 °C 20.8 °C 20.4 °C 19.9 °C 20000 m 0 cm 0 min 0 W/m² 1022.1 hPa 0  
06:00 15.4 °C 12 °C 80 % 6 km/h (9 km/h) 0 mm0 mm 20.6 °C 20.8 °C 20.4 °C 19.9 °C 20000 m 0 cm 0 min 0 W/m² 1022 hPa 0  
05:54 15.3 °C 11.7 °C 79 % 6 km/h (9 km/h) 0 mm0 mm 20.6 °C 20.7 °C 20.4 °C 19.9 °C 20000 m 0 cm 0 min 0 W/m² 1021.8 hPa 0  
05:48 15.4 °C 11.8 °C 79 % 6 km/h (9 km/h) 0 mm0 mm 20.6 °C 20.7 °C 20.4 °C 19.9 °C 20000 m 0 cm 0 min 0 W/m² 1022 hPa
05:42 15.4 °C 11.8 °C 79 % 7 km/h (10 km/h) 0 mm0 mm 20.6 °C 20.8 °C 20.4 °C 19.9 °C 0 cm 0 min 0 W/m² 1022.1 hPa 0  
05:36 15.6 °C 11.6 °C 77 % 6 km/h (10 km/h) 0 mm0 mm 20.6 °C 20.8 °C 20.4 °C 19.9 °C 20000 m 0 cm 0 min 0 W/m² 1022.3 hPa 0  
05:30 15.9 °C 11.7 °C 76 % 5 km/h (8 km/h) 0 mm0 mm 20.6 °C 20.8 °C 20.4 °C 19.9 °C 20000 m 0 cm 0 min 0 W/m² 1022.5 hPa 0  
05:24 16 °C 11.8 °C 76 % 5 km/h (7 km/h) 0 mm0 mm 20.6 °C 20.8 °C 20.4 °C 19.9 °C 20000 m 0 cm 0 min 0 W/m² 1022.5 hPa 0  
05:18 16.1 °C 11.9 °C 76 % 5 km/h (9 km/h) 0 mm0 mm 20.7 °C 20.8 °C 20.4 °C 19.9 °C 20000 m 0 cm 0 min 0 W/m² 1022.6 hPa 0  
05:12 16.1 °C 11.7 °C 75 % 6 km/h (10 km/h) 0 mm0 mm 20.7 °C 20.8 °C 20.4 °C 19.9 °C 20000 m 0 cm 0 min 0 W/m² 1022.6 hPa 0  
05:06 16.1 °C 11.7 °C 75 % 7 km/h (12 km/h) 0 mm0 mm 20.7 °C 20.8 °C 20.4 °C 19.9 °C 20000 m 0 cm 0 min 0 W/m² 1022.5 hPa 0  
05:00 16.1 °C 11.7 °C 75 % 7 km/h (12 km/h) 0 mm0 mm 20.7 °C 20.8 °C 20.4 °C 19.9 °C 20000 m 0 cm 0 min 0 W/m² 1022.3 hPa 0  
04:54 16.2 °C 11.6 °C 74 % 7 km/h (12 km/h) 0 mm0 mm 20.7 °C 20.8 °C 20.4 °C 19.9 °C 20000 m 0 cm 0 min 0 W/m² 1022.3 hPa 0  
04:48 16.3 °C 11.7 °C 74 % 6 km/h (12 km/h) 0 mm0 mm 20.7 °C 20.8 °C 20.4 °C 19.9 °C 20000 m 0 cm 0 min 0 W/m² 1022.4 hPa 0  
04:42 16.2 °C 11.8 °C 75 % 6 km/h (10 km/h) 0 mm0 mm 20.7 °C 20.8 °C 20.4 °C 19.9 °C 20000 m 0 cm 0 min 0 W/m² 1022.4 hPa 0  
04:36 16.2 °C 11.6 °C 74 % 5 km/h (9 km/h) 0 mm0 mm 20.8 °C 20.8 °C 20.4 °C 19.9 °C 20000 m 0 cm 0 min 0 W/m² 1022.2 hPa 0  
04:30 16.2 °C 11.6 °C 74 % 6 km/h (9 km/h) 0 mm0 mm 20.7 °C 20.9 °C 20.4 °C 19.9 °C 20000 m 0 cm 0 min 0 W/m² 1022.1 hPa 0  
04:24 16.3 °C 11.7 °C 74 % 7 km/h (10 km/h) 0 mm0 mm 20.8 °C 20.9 °C 20.4 °C 19.9 °C 20000 m 0 cm 0 min 0 W/m² 1022 hPa 0  
04:18 16.4 °C 11.5 °C 73 % 6 km/h (9 km/h) 0 mm0 mm 20.8 °C 20.9 °C 20.4 °C 19.9 °C 20000 m 0 cm 0 min 0 W/m² 1021.9 hPa 0  
04:12 16.5 °C 11.4 °C 72 % 6 km/h (10 km/h) 0 mm0 mm 20.8 °C 20.9 °C 20.4 °C 19.9 °C 20000 m 0 cm 0 min 0 W/m² 1022.2 hPa 0  
04:06 16.6 °C 11.5 °C 72 % 6 km/h (10 km/h) 0 mm0 mm 20.8 °C 20.9 °C 20.4 °C 19.9 °C 20000 m 0 cm 0 min 0 W/m² 1022.4 hPa 0  
04:00 16.6 °C 11.5 °C 72 % 6 km/h (10 km/h) 0 mm0 mm 20.8 °C 20.9 °C 20.4 °C 19.9 °C 20000 m 0 cm 0 min 0 W/m² 1022.2 hPa 0  
03:54 16.5 °C 11.4 °C 72 % 7 km/h (12 km/h) 0 mm0 mm 20.8 °C 20.9 °C 20.4 °C 19.9 °C 20000 m 0 cm 0 min 0 W/m² 1022.1 hPa 0  
03:48 16.5 °C 11.4 °C 72 % 6 km/h (9 km/h) 0 mm0 mm 20.8 °C 20.9 °C 20.4 °C 19.9 °C 20000 m 0 cm 0 min 0 W/m² 1022.2 hPa 0  
03:42 16.7 °C 11.4 °C 71 % 6 km/h (8 km/h) 0 mm0 mm 20.8 °C 20.9 °C 20.4 °C 19.9 °C 20000 m 0 cm 0 min 0 W/m² 1022.2 hPa 0  
03:36 16.8 °C 11.3 °C 70 % 5 km/h (8 km/h) 0 mm0 mm 20.9 °C 20.9 °C 20.4 °C 19.9 °C 20000 m 0 cm 0 min 0 W/m² 1022.2 hPa 0  
03:30 17 °C 11.5 °C 70 % 5 km/h (9 km/h) 0 mm0 mm 20.9 °C 20.9 °C 20.4 °C 20 °C 20000 m 0 cm 0 min 0 W/m² 1022 hPa 0  
03:24 17.1 °C 11.4 °C 69 % 5 km/h (11 km/h) 0 mm0 mm 20.9 °C 20.9 °C 20.4 °C 19.9 °C 20000 m 0 cm 0 min 0 W/m² 1022.1 hPa 0  
03:18 17.2 °C 11.2 °C 68 % 6 km/h (11 km/h) 0 mm0 mm 20.9 °C 20.9 °C 20.4 °C 19.9 °C 20000 m 0 cm 0 min 0 W/m² 1022.1 hPa 0  
03:12 17.3 °C 11.3 °C 68 % 7 km/h (13 km/h) 0 mm0 mm 20.9 °C 21 °C 20.4 °C 19.9 °C 20000 m 0 cm 0 min 0 W/m² 1022.1 hPa 0  
03:06 17.4 °C 11.4 °C 68 % 6 km/h (9 km/h) 0 mm0 mm 20.9 °C 21 °C 20.4 °C 19.9 °C 20000 m 0 cm 0 min 0 W/m² 1022.1 hPa 0  
03:00 17.5 °C 11.3 °C 67 % 6 km/h (10 km/h) 0 mm0 mm 20.9 °C 21 °C 20.4 °C 20 °C 20000 m 0 cm 0 min 0 W/m² 1022 hPa 0  
02:54 17.5 °C 11.3 °C 67 % 6 km/h (10 km/h) 0 mm0 mm 21 °C 21 °C 20.4 °C 19.9 °C 20000 m 0 cm 0 min 0 W/m² 1022 hPa 0  
02:48 17.7 °C 11.3 °C 66 % 7 km/h (12 km/h) 0 mm0 mm 21 °C 21 °C 20.4 °C 19.9 °C 20000 m 0 cm 0 min 0 W/m² 1022 hPa 0  
02:42 17.7 °C 11.3 °C 66 % 7 km/h (13 km/h) 0 mm0 mm 21 °C 21 °C 20.4 °C 20 °C 20000 m 0 cm 0 min 0 W/m² 1022 hPa 0  
02:36 17.8 °C 11.4 °C 66 % 8 km/h (13 km/h) 0 mm0 mm 21 °C 21 °C 20.4 °C 19.9 °C 20000 m 0 cm 0 min 0 W/m² 1022.1 hPa 0  
02:30 17.8 °C 11.4 °C 66 % 8 km/h (14 km/h) 0 mm0 mm 21 °C 21 °C 20.4 °C 19.9 °C 20000 m 0 cm 0 min 0 W/m² 1022.2 hPa 0  
02:24 17.8 °C 11.4 °C 66 % 9 km/h (15 km/h) 0 mm0 mm 21 °C 21 °C 20.4 °C 19.9 °C 20000 m 0 cm 0 min 0 W/m² 1022.2 hPa 0  
02:18 17.8 °C 11.4 °C 66 % 7 km/h (15 km/h) 0 mm0 mm 21.1 °C 21 °C 20.4 °C 19.9 °C 20000 m 0 cm 0 min 0 W/m² 1022.2 hPa 0  
02:12 17.8 °C 11.4 °C 66 % 6 km/h (10 km/h) 0 mm0 mm 21.1 °C 21 °C 20.4 °C 19.9 °C 20000 m 0 cm 0 min 0 W/m² 1022.2 hPa 0  
02:06 17.9 °C 11.5 °C 66 % 6 km/h (12 km/h) 0 mm0 mm 21.1 °C 21 °C 20.4 °C 19.9 °C 20000 m 0 cm 0 min 0 W/m² 1022.1 hPa 0  
02:00 17.9 °C 11.5 °C 66 % 5 km/h (10 km/h) 0 mm0 mm 21.1 °C 21 °C 20.4 °C 19.9 °C 20000 m 0 cm 0 min 0 W/m² 1022 hPa 0  
01:54 17.9 °C 11.5 °C 66 % 5 km/h (10 km/h) 0 mm0 mm 21.1 °C 21.1 °C 20.4 °C 20 °C 20000 m 0 cm 0 min 0 W/m² 1022 hPa 0  
01:48 17.9 °C 11.5 °C 66 % 6 km/h (10 km/h) 0 mm0 mm 21.1 °C 21 °C 20.4 °C 19.9 °C 20000 m 0 cm 0 min 0 W/m² 1022 hPa 0  
01:42 17.8 °C 11.6 °C 67 % 7 km/h (10 km/h) 0 mm0 mm 21.2 °C 21 °C 20.4 °C 19.9 °C 20000 m 0 cm 0 min 0 W/m² 1022.1 hPa 0  
01:36 17.9 °C 11.7 °C 67 % 6 km/h (10 km/h) 0 mm0 mm 21.2 °C 21 °C 20.4 °C 19.9 °C 20000 m 0 cm 0 min 0 W/m² 1022.1 hPa 0  
01:30 17.8 °C 11.6 °C 67 % 6 km/h (13 km/h) 0 mm0 mm 21.2 °C 21.1 °C 20.4 °C 19.9 °C 20000 m 0 cm 0 min 0 W/m² 1022.1 hPa 0  
01:24 17.8 °C 11.6 °C 67 % 6 km/h (13 km/h) 0 mm0 mm 21.2 °C 21.1 °C 20.4 °C 19.9 °C 20000 m 0 cm 0 min 0 W/m² 1022.1 hPa 0  
01:18 17.9 °C 11.7 °C 67 % 6 km/h (11 km/h) 0 mm0 mm 21.2 °C 21.1 °C 20.4 °C 19.9 °C 20000 m 0 cm 0 min 0 W/m² 1022.2 hPa 0  
01:12 17.8 °C 11.6 °C 67 % 5 km/h (9 km/h) 0 mm0 mm 21.3 °C 21.1 °C 20.4 °C 20 °C 20000 m 0 cm 0 min 0 W/m² 1022.2 hPa 0  
01:06 17.9 °C 11.7 °C 67 % 5 km/h (8 km/h) 0 mm0 mm 21.2 °C 21.1 °C 20.4 °C 20 °C 20000 m 0 cm 0 min 0 W/m² 1022.2 hPa 0  
01:00 17.8 °C 11.6 °C 67 % 6 km/h (10 km/h) 0 mm0 mm 21.3 °C 21.1 °C 20.4 °C 19.9 °C 20000 m 0 cm 0 min 0 W/m² 1022.2 hPa 0  
00:54 17.5 °C 11.5 °C 68 % 6 km/h (10 km/h) 0 mm0 mm 21.3 °C 21.1 °C 20.4 °C 19.9 °C 20000 m 0 cm 0 min 0 W/m² 1022.2 hPa 0  
00:48 17.3 °C 11.6 °C 69 % 6 km/h (10 km/h) 0 mm0 mm 21.3 °C 21.1 °C 20.4 °C 19.9 °C 20000 m 0 cm 0 min 0 W/m² 1022.2 hPa 0  
00:42 17.3 °C 11.6 °C 69 % 4 km/h (9 km/h) 0 mm0 mm 21.3 °C 21.1 °C 20.4 °C 19.9 °C 20000 m 0 cm 0 min 0 W/m² 1022.3 hPa 0  
00:36 17 °C 11.7 °C 71 % 5 km/h (9 km/h) 0 mm0 mm 21.3 °C 21.1 °C 20.4 °C 19.9 °C 20000 m 0 cm 0 min 0 W/m² 1022.5 hPa 0  
00:30 16.5 °C 11.4 °C 72 % 6 km/h (9 km/h) 0 mm0 mm 21.3 °C 21.1 °C 20.4 °C 19.9 °C 20000 m 0 cm 0 min 0 W/m² 1022.4 hPa 0  
00:24 16.4 °C 11.3 °C 72 % 5 km/h (8 km/h) 0 mm0 mm 21.3 °C 21.1 °C 20.4 °C 19.9 °C 20000 m 0 cm 0 min 0 W/m² 1022.3 hPa 0  
00:18 16.3 °C 11.2 °C 72 % 5 km/h (7 km/h) 0 mm0 mm 21.4 °C 21.1 °C 20.4 °C 19.9 °C 20000 m 0 cm 0 min 0 W/m² 1022.3 hPa 0  
00:12 16.3 °C 11.2 °C 72 % 5 km/h (7 km/h) 0 mm0 mm 21.4 °C 21.3 °C 20.6 °C 20.1 °C 20000 m 0 cm 0 min 0 W/m² 1022.3 hPa 0  
00:06 16.5 °C 11.2 °C 71 % 5 km/h (6 km/h) 0 mm0 mm 21.4 °C 21.1 °C 20.4 °C 19.9 °C 20000 m 0 cm 0 min 0 W/m² 1022.3 hPa 0  
00:00 16.5 °C 11.2 °C 71 % 5 km/h (6 km/h) 0 mm0 mm 21.4 °C 21.1 °C 20.4 °C 19.9 °C 20000 m 0 cm 0 min 0 W/m² 1022.4 hPa 0  

Données via Météo-France

Relevés météo à Chartres

Cette page rassemble les observations de la station de Chartres : température, humidité, vent, précipitations et pression atmosphérique. Les graphiques facilitent le suivi de la journée, tandis que le tableau donne accès aux mesures horaires et infra-horaires disponibles.

Pour replacer ces mesures dans leur contexte, consultez la climatologie de Chartres ainsi que ses normales et records. Retrouvez aussi la carte des observations météo en temps réel.